Location: Camaret
(48.2753°N, 4.5961°W)
Time: 03:17:14
(UTC+00:00)

Meteor 2-10 Rocket - Pass Details

Date: 29 October 2020
Orbit: 734 x 885 km, 81.2° (Epoch: 01 December)

Event Time Altitude Azimuth Distance (km) Brightness Sun altitude
Rises 17:48:51 0° 158° (SSE) 3,290 6.7 -8.1°
Reaches altitude 10° 17:51:32 10° 147° (SSE) 2,340 5.8 -8.5°
Maximum altitude 17:55:56 28° 90° (E) 1,422 4.3 -9.2°
Drops below altitude 10° 18:00:13 10° 33° (NNE) 2,285 5.6 -9.9°
Sets 18:02:49 0° 22° (NNE) 3,199 6.4 -10.4°
